DW5656 Weather Reports


time (UTC)temp
F
wind
direction
speed
knots
gust
knots
rain 1hr
in
rain 24hr
in
rain mn
in
humidity
%
barometer
mb
20260502152018 72 316 3.5 7.8 0.00 0.00 0.00 69 1015.6
20260502151118 72 279 3.5 9.6 0.00 0.00 0.00 70 1015.9
20260502150240 72 288 3.5 7.8 0.00 0.00 0.00 70 1015.8
20260502130540 74 237 1.7 3.5 0.00 0.00 0.00 61 1016.8
20260502122918 73 262 0.0 7.0 0.00 0.00 0.00 63 1017.2
20260502122018 73 306 0.0 0.9 0.00 0.00 0.00 63 1017.3
20260502121139 73 177 0.0 2.6 0.00 0.00 0.00 64 1017.4
20260502120218 73 271 0.0 6.1 0.00 0.00 0.00 63 1017.3
20260502115318 72 126 0.0 0.9 0.00 0.00 0.00 63 1017.3
20260502114439 72 109 0.0 0.9 0.00 0.00 0.00 63 1017.3
20260502113518 72 192 0.0 1.7 0.00 0.00 0.00 63 1017.4
20260502112618 72 259 0.0 1.7 0.00 0.00 0.00 63 1017.3
20260502111718 72 277 0.0 1.7 0.00 0.00 0.00 64 1017.4
20260502110818 72 275 0.0 1.7 0.00 0.00 0.00 64 1017.6
20260502105918 72 234 0.0 0.9 0.00 0.00 0.00 64 1017.7
20260502105018 72 129 0.0 2.6 0.00 0.00 0.00 64 1018.0
20260502104118 72 131 0.0 2.6 0.00 0.00 0.00 64 1018.0
20260502103218 71 0 0.0 0.0 0.00 0.00 0.00 66 1018.1
20260502102318 70 0 0.0 0.0 0.00 0.00 0.00 65 1018.1
20260502101417 70 0 0.0 0.0 0.00 0.00 0.00 67 1018.1
20260502100518 69 266 0.0 3.5 0.00 0.00 0.00 68 1018.4
20260502091138 68 0 0.0 0.0 0.00 0.00 0.00 67 1018.1
20260502090218 67 25 0.0 3.5 0.00 0.00 0.00 68 1018.1
20260502071417 64 0 0.0 0.0 0.00 0.00 0.00 72 1017.9
20260502070517 65 0 0.0 0.0 0.00 0.00 0.00 72 1017.8
20260502065617 65 0 0.0 0.0 0.00 0.00 0.00 72 1017.8
20260502064717 65 0 0.0 0.0 0.00 0.00 0.00 71 1017.7
20260502063817 64 0 0.0 0.0 0.00 0.00 0.00 71 1017.6
20260502062917 64 0 0.0 0.0 0.00 0.00 0.00 71 1017.8
20260502062017 64 0 0.0 0.0 0.00 0.00 0.00 71 1017.7
20260502061117 64 0 0.0 0.0 0.00 0.00 0.00 71 1017.6
20260502060217 64 0 0.0 0.0 0.00 0.00 0.00 72 1017.7
20260502055338 64 0 0.0 0.0 0.00 0.00 0.00 72 1017.4
20260502054417 64 0 0.0 0.0 0.00 0.00 0.00 72 1017.4
20260502053517 64 336 0.0 2.6 0.00 0.00 0.00 72 1017.4
20260502052617 65 0 0.0 0.0 0.00 0.00 0.00 71 1017.2
20260502051717 64 0 0.0 0.0 0.00 0.00 0.00 72 1017.1
20260502050838 64 0 0.0 0.0 0.00 0.00 0.00 71 1017.2
20260502045938 64 0 0.0 0.0 0.00 0.00 0.00 72 1017.2
20260502045016 64 0 0.0 0.0 0.00 0.00 0.00 72 1017.3
20260502044117 64 0 0.0 0.0 0.00 0.00 0.00 72 1017.3
20260502043216 64 337 0.0 1.7 0.00 0.00 0.00 72 1017.4
20260502042316 64 0 0.0 0.0 0.00 0.00 0.00 73 1017.4
20260502041438 64 0 0.0 0.0 0.00 0.00 0.00 73 1017.4
20260502040516 64 336 0.0 0.9 0.00 0.00 0.00 72 1017.3
20260502035616 64 0 0.0 0.0 0.00 0.00 0.00 72 1017.4
20260502034716 64 0 0.0 0.0 0.00 0.00 0.00 72 1017.5
20260502033816 64 313 0.0 2.6 0.00 0.00 0.00 71 1017.6
20260502032916 65 313 0.0 0.9 0.00 0.00 0.00 72 1017.6
20260502032037 65 0 0.0 0.0 0.00 0.00 0.00 71 1017.6
20260502031116 65 300 0.0 0.9 0.00 0.00 0.00 70 1017.5
20260502030216 66 300 0.0 1.7 0.00 0.00 0.00 70 1017.7
20260502025316 66 0 0.0 0.0 0.00 0.00 0.00 71 1017.6
20260502024416 66 0 0.0 0.0 0.00 0.00 0.00 70 1017.7
20260502023516 66 0 0.0 0.0 0.00 0.00 0.00 69 1017.6
20260502022616 66 300 0.0 0.9 0.00 0.00 0.00 68 1017.7
20260502021716 66 0 0.0 0.0 0.00 0.00 0.00 68 1017.6
20260502020816 66 300 0.0 0.9 0.00 0.00 0.00 67 1017.7
20260502015937 66 0 0.0 0.0 0.00 0.00 0.00 67 1017.8
20260502015016 66 300 0.0 0.9 0.00 0.00 0.00 67 1017.9
20260502014116 66 0 0.0 0.0 0.00 0.00 0.00 67 1017.9
20260502013216 66 300 0.0 0.9 0.00 0.00 0.00 67 1018.0
20260502012316 66 300 0.0 0.9 0.00 0.00 0.00 67 1018.2
20260502011437 66 300 0.0 0.9 0.00 0.00 0.00 67 1018.1
20260502010516 66 0 0.0 0.0 0.00 0.00 0.00 67 1018.4
20260502005616 66 300 0.0 0.9 0.00 0.00 0.00 67 1018.4
20260502004716 66 300 0.0 1.7 0.00 0.00 0.00 68 1018.6
20260502003816 66 300 0.0 0.9 0.00 0.00 0.00 68 1018.7
20260502002916 66 308 0.0 1.7 0.00 0.00 0.00 68 1018.8
20260502002016 66 315 0.0 1.7 0.00 0.00 0.00 68 1019.0
20260502001116 66 315 0.0 1.7 0.00 0.00 0.00 68 1019.0
20260502000237 66 316 0.0 0.9 0.00 0.00 0.00 68 1018.9
20260501235316 66 316 1.7 4.3 0.00 0.00 0.00 69 1018.9
20260501234416 66 303 0.0 4.3 0.00 0.00 0.00 68 1019.2
20260501233537 66 252 0.0 1.7 0.00 0.00 0.00 69 1019.3
20260501232616 66 252 0.0 0.9 0.00 0.00 0.00 69 1019.2
20260501231716 66 252 0.0 1.7 0.00 0.00 0.00 69 1019.3
20260501230816 66 249 0.0 2.6 0.00 0.00 0.00 69 1019.3
20260501225937 66 248 0.9 3.5 0.00 0.00 0.00 68 1019.0
20260501225016 66 248 0.9 4.3 0.00 0.00 0.00 68 1019.2
20260501224115 66 246 0.9 3.5 0.00 0.00 0.00 68 1019.1
20260501223216 66 247 0.9 2.6 0.00 0.00 0.00 67 1019.0
20260501222316 67 251 0.9 2.6 0.00 0.00 0.00 67 1019.0
20260501221416 67 262 0.9 3.5 0.00 0.00 0.00 66 1018.9
20260501220515 67 244 0.9 5.2 0.00 0.00 0.00 66 1018.8
20260501215615 67 231 0.9 3.5 0.00 0.00 0.00 65 1018.6
20260501214715 68 228 0.9 2.6 0.00 0.00 0.00 65 1018.7
20260501213836 68 241 1.7 3.5 0.00 0.00 0.00 64 1018.9
20260501212915 68 241 0.9 4.3 0.00 0.00 0.00 63 1018.8
20260501212015 68 236 1.7 4.3 0.00 0.00 0.00 62 1018.8
20260501211115 69 239 1.7 5.2 0.00 0.00 0.00 61 1018.7
20260501210236 69 233 1.7 4.3 0.00 0.00 0.00 60 1018.8
20260501205315 70 240 0.9 4.3 0.00 0.00 0.00 59 1018.7
20260501204415 70 238 0.9 2.6 0.00 0.00 0.00 58 1018.5
20260501203515 70 224 1.7 4.3 0.00 0.00 0.00 58 1018.4
20260501202616 70 231 1.7 4.3 0.00 0.00 0.00 57 1018.3
20260501201715 70 251 1.7 4.3 0.00 0.00 0.00 56 1018.3
20260501200815 71 238 1.7 3.5 0.00 0.00 0.00 55 1018.2
20260501195915 71 259 1.7 5.2 0.00 0.00 0.00 55 1018.2
20260501195036 71 259 2.6 5.2 0.00 0.00 0.00 54 1018.0
20260501194115 71 244 2.6 7.0 0.00 0.00 0.00 54 1017.8
20260501193215 72 233 2.6 6.1 0.00 0.00 0.00 53 1017.8
20260501192336 72 239 2.6 7.0 0.00 0.00 0.00 53 1017.6
20260501191415 72 241 2.6 6.1 0.00 0.00 0.00 53 1017.5
20260501190515 72 242 3.5 7.0 0.00 0.00 0.00 52 1017.5
20260501185615 73 248 3.5 7.8 0.00 0.00 0.00 52 1017.4
20260501184715 73 257 3.5 7.8 0.00 0.00 0.00 52 1017.4
20260501183815 73 251 4.3 9.6 0.00 0.00 0.00 51 1017.4
20260501182915 74 240 5.2 10.4 0.00 0.00 0.00 51 1017.4
20260501182015 74 242 4.3 10.4 0.00 0.00 0.00 50 1017.3
20260501181115 75 239 4.3 9.6 0.00 0.00 0.00 51 1017.3
20260501180215 75 254 4.3 9.6 0.00 0.00 0.00 50 1017.3
20260501175315 76 250 3.5 9.6 0.00 0.00 0.00 49 1017.3
20260501174415 76 244 4.3 9.6 0.00 0.00 0.00 49 1017.3
20260501173515 76 225 3.5 9.6 0.00 0.00 0.00 48 1017.2
20260501172615 76 219 4.3 9.6 0.00 0.00 0.00 46 1017.2
20260501171715 77 238 5.2 10.4 0.00 0.00 0.00 45 1017.2
20260501170815 77 242 3.5 11.3 0.00 0.00 0.00 44 1017.2
20260501165915 77 231 4.3 11.3 0.00 0.00 0.00 46 1017.2
20260501165016 77 236 3.5 11.3 0.00 0.00 0.00 48 1017.1
20260501164114 77 239 4.3 10.4 0.00 0.00 0.00 48 1017.1
20260501163215 77 226 4.3 8.7 0.00 0.00 0.00 48 1017.2
20260501162335 77 256 5.2 9.6 0.00 0.00 0.00 50 1017.1
20260501161414 76 261 5.2 10.4 0.00 0.00 0.00 51 1017.0
20260501160515 77 245 6.1 11.3 0.00 0.00 0.00 51 1017.2
20260501155615 76 262 6.1 13.0 0.00 0.00 0.00 53 1016.9
20260501154735 77 232 4.3 13.0 0.00 0.00 0.00 50 1017.0
20260501153815 78 235 4.3 11.3 0.00 0.00 0.00 50 1016.9